SL-12 DEB, 41696

Orbit data source: Space-Track

SL-12 DEB, 41696 is space debris in HEO originally from a launch on Mon, 01 Mar 2010 UTC launched from the Tyuratam Missile And Space Complex (TTMTR). Debris objects in space refer to the collection of defunct objects orbiting the Earth. Examples of debris include non-operational satellites, rocket bodies, and fragments generated from explosions, collisions, or faulty payload assembly.

Loading next visibility...
Identifier
41696, 2010-007N
Orbit
HEO
Country
Flag of CISCIS
Related business
Manufacturer
RKKE
Mission
Spacecraft
Bus & Motor
Unknown
Mass
Unknown
Launch date (UTC)
2010-03-01 (17 years ago)
Launch vehicle
Unknown
Launch site
Tyuratam Missile And Space Complex (TTMTR)
Object type
Payload
Rocket body
Debris
Shape & HBR
Unknown shape, 0.1 m
Radar Cross Section
Medium (>0.1 m² and <1 m²)

Expand to show TLE details & history
Last TLE update: 3 months ago

TLE from 3 months ago
0 SL-12 DEB
1 41696U 10007N   26174.35901916  .00228048  00000-0  12697-1 0  9998
2 41696  63.5013 205.0248 5277080  23.7711 353.6892  5.23607850180121
Epoch: 2026-06-23T08:36Z
TLE epoch observation values (Epoch: 2026-06-23T08:36:59.255Z)
Latitude
-0.00017°
Longitude
164.24407°
Altitude
434.735 km
Speed
9.412 km/s
True Right ascension
13h 40m 05s
True Declination
0° 00' 01"
Sunlit
Object was in full shadow at epoch
Visualization orbit readout
Latitude
Unknown
Longitude
Unknown
Altitude
Unknown
Speed
Unknown
Apparent Right ascension
Unknown
Apparent Declination
Unknown
Sunlit
N/A
Visualization observer readout
Local Sidereal Time
21:50:17
Azimuth
Unknown
Elevation
Unknown
Doppler factor
Unknown
Orbital elements
Apogee altitude
15,021.496 km
Perigee altitude
237.575 km
Semi-major axis
14,007.673 km
Eccentricity
0.52771
Inclination
63.5013°
RAAN
205.0248°
Arg. of periapsis
23.7711°
True anomaly
336.43532°
Mean anomaly
353.6892°
Eccentric anomaly
346.76897°
Mean motion
1.30916 °/min
Orbital period
274.98 mins
BSTAR
0.012697
Loading maneuver chart data...
Computing Atmospheric mass density...
Loading historical data...
Loading historical data...
Loading historical data...
Loading historical data...
Loading historical data...
Loading historical data...
Loading historical data...

Documentation

Showing up to 5 results
|